Location: Maccacari
(45.1333°N, 11.1333°E)
Time: 00:35:24
(UTC+00:00)

A-11 Canister half - Pass Details

Date: 30 January 2021
Orbit: 1525 x 1684 km, 47.3° (Epoch: 07 March)

Event Time Altitude Azimuth Distance (km) Brightness Sun altitude
Rises 20:37:35 0° 286° (WNW) 4,782 12.3 -44.9°
Reaches altitude 10° 20:42:59 10° 261° (W) 3,828 11.5 -45.8°
Maximum altitude 20:46:53 13° 237° (WSW) 3,604 11.1 -46.4°
Enters shadow 20:50:38 10° 214° (SW) 3,847 11.1 -47.0°
Drops below altitude 10° 20:50:50 10° 213° (SSW) 3,872 - -47.0°
Sets 20:56:26 0° 188° (S) 4,885 - -47.9°
